STARLINK-32168, 60335

Orbit data source: Space-Track

STARLINK-32168, 60335 is a payload satellite owned by SpaceX/Seattle (US) in LEO that was launched on Fri, 02 Aug 2024 UTC via an FALCON 9 launch vehicle from the Air Force Eastern Test Range (AFETR). Payload-class satellites include a variety of spacecraft equipped with specific instruments for various scientific and technological missions. These include communications satellites like Starlink; space stations such as the ISS; scientific satellites like the Hubble; Earth observation satellites from companies like Planet Labs, Umbra, and HawkEye 360; GPS; miniature CubeSats for education and research; and military/defense satellites.

Loading next visibility...
Identifier
60335, 2024-136G
Orbit
LEO
Last TLE update
8 hours ago
Origin
Manufacturer
SpaceX/Seattle
Mission
Operational Commercial Communications
Bus & Motor
STARLINK V2M, Unknown motor
Mass
730 kg wet, ~700 kg dry
Launch date (UTC)
2024-08-02 (11 months ago)
Launch vehicle
FALCON 9
Launch site
Air Force Eastern Test Range (AFETR)
Object type
Payload
Rocket body
Debris
Shape & HBR
Box + 2 Pan, 29 m
Radar Cross Section
33.884 m², Large (>1 m²)

Expand to show TLE details & history

TLE from 8 hours ago
0 STARLINK-32168
1 60335U 24136G   25192.16197070  .00001363  00000-0  58162-4 0  9992
2 60335  53.1590 117.6796 0000859  91.0756 269.0343 15.30185960 53844
Epoch: 2025-07-11T03:53Z
TLE epoch observation values (Epoch: 2025-07-11T03:53:14.268Z)
Latitude
-0.00003°
Longitude
130.05226°
Altitude
476.167 km
Speed
7.629 km/s
True Right ascension
07h 50m 43s
True Declination
0° 00' 00"
Sunlit
Object was in daylight at epoch
Visualization orbit readout
Latitude
48.11798°
Longitude
-175.32911°
Altitude
480.106 km
Speed
7.632 km/s
Apparent Right ascension
11h 55m 08s
Apparent Declination
6° 07' 41"
Sunlit
Object is in daylight
Visualization observer readout
Local Sidereal Time
00:19:25
Azimuth
8.351° NNE
Elevation
-43.617°
Doppler factor
1
Orbital elements
Apogee altitude
476.102 km
Perigee altitude
474.925 km
Semi-major axis
6,853.651 km
Eccentricity
0.00009
Inclination
53.159°
RAAN
117.6796°
Arg. of periapsis
91.0756°
True anomaly
Unknown
Mean anomaly
269.0343°
Eccentric anomaly
Unknown
Mean motion
3.82525 °/min
Orbital period
94.11 mins
BSTAR
0.000058162
Loading maneuver chart data...
Loading SW <> Apogee altitude chart data...
Loading historical data...
Loading historical data...
Loading historical data...
Loading historical data...
Loading historical data...
Loading historical data...
Loading historical data...

STARLINK-32168 Visibility forecast

Observer location: undefined°, undefined°

Span
Click to sort rows by Start time (UTC) header in descending order
Start Az.
Max El. time (UTC)
Max El. Az.
Max El.
End time (UTC)
End Az.
6 mins2025-07-11 21:17:16.966Z205.694° SW2025-07-11 21:20:16.966Z147.872° SSE34.167°2025-07-11 21:23:16.966Z66.222° ENE
4 mins2025-07-11 22:57:16.966Z297.585° NW2025-07-11 22:58:16.966Z323.131° NNW23.9°2025-07-11 23:01:16.966Z26.979° NE
5 mins2025-07-12 03:53:16.966Z332.245° NNW2025-07-12 03:55:16.966Z24.242° NE32.403°2025-07-12 03:58:16.966Z100.25° ESE
4 mins2025-07-12 05:31:16.966Z273.075° WNW2025-07-12 05:33:16.966Z228.405° WSW22.446°2025-07-12 05:35:16.966Z184.962° SSW
|